Theta_e
311 312 315 316 335 339 339 339 338 337 337 337 336 335 336 338 337 337 337 337 337 336 327 322 318 320 317 314 312 309 305 305 304 302 300 301 304 301 301 303 303 306 306
311 313 312 313 335 338 338 338 338 338 338 338 339 335 335 335 337 334 333 330 327 322 320 317 316 317 314 310 307 305 302 303 303 299 298 295 298 300 301 301 303 302 304
308 310 312 316 331 337 338 338 338 339 339 338 339 339 334 333 331 331 326 323 320 318 317 316 312 312 311 307 305 304 302 300 301 301 299 293 292 296 300 301 301 302 301
308 310 310 312 327 336 340 339 339 339 339 340 338 337 333 331 330 329 319 318 318 317 316 314 311 309 308 306 305 305 302 301 299 300 304 300 300 295 294 299 300 301 302
309 309 309 312 325 335 340 340 340 340 339 339 338 336 333 331 323 321 316 315 315 315 314 311 308 307 306 304 304 303 302 302 301 300 300 300 299 298 296 293 295 299 300
310 312 314 311 326 332 340 340 339 339 338 338 337 335 331 324 319 317 314 314 313 312 312 311 307 306 305 304 304 303 304 302 302 302 302 300 298 297 296 294 294 294 298
310 310 311 310 324 328 333 338 338 337 337 336 335 333 329 323 318 315 314 313 311 310 309 309 306 305 305 305 304 303 302 302 301 301 301 302 301 301 300 297 294 294 297
307 309 311 310 325 330 333 336 337 335 335 333 332 331 329 322 319 315 314 314 312 310 308 308 307 305 305 304 303 302 302 302 301 301 301 300 300 301 300 298 295 294 295
306 309 310 310 322 330 332 335 335 335 334 333 331 330 329 321 316 316 315 313 311 310 309 306 304 304 304 303 302 301 300 301 300 299 299 299 299 299 299 299 298 295 291
308 308 308 312 326 330 333 336 336 335 335 334 330 329 327 320 316 316 313 312 312 309 306 305 305 303 303 302 302 300 301 299 298 299 298 298 299 299 298 298 297 296 293
306 307 308 313 326 330 333 334 333 331 325 325 327 320 318 316 316 315 311 311 308 307 306 306 303 303 301 301 300 300 300 299 298 299 298 297 298 297 297 296 295 294 293
311 309 311 325 328 329 328 327 325 325 321 319 316 317 315 315 312 310 308 308 306 307 306 305 304 302 302 301 300 300 299 298 297 297 297 297 298 294 292 291 290 290 290
308 310 322 324 325 324 324 322 319 318 315 315 313 313 312 312 309 308 306 307 306 305 304 303 302 302 302 302 300 300 298 297 297 296 295 294 293 290 289 288 288 288 290
309 312 318 321 322 321 320 317 313 313 312 311 312 310 310 309 308 308 307 305 306 303 302 303 304 304 302 301 299 298 296 295 296 296 294 293 290 289 288 288 287 288 287
310 311 313 320 320 319 317 315 311 311 310 309 309 308 308 307 306 306 305 305 303 302 303 303 303 302 300 297 295 294 293 293 293 293 292 291 293 293 290 288 288 288 286
310 310 314 319 320 319 316 315 311 309 309 307 306 305 306 305 305 304 304 302 301 302 302 301 300 295 295 290 291 291 291 293 291 290 289 289 291 290 290 289 289 287 283
309 310 313 316 320 319 316 312 309 308 307 306 305 304 304 303 302 302 301 300 300 300 300 299 295 293 291 290 290 289 290 290 290 288 288 288 290 288 287 287 288 286 287
307 309 313 316 320 319 315 310 307 306 305 303 303 303 303 301 300 300 299 299 299 299 298 297 294 292 292 290 289 289 289 290 289 288 287 286 285 285 286 286 285 282 283
310 309 313 316 318 318 313 308 306 304 303 302 302 302 301 299 299 298 298 298 297 298 297 297 294 292 290 289 289 289 290 289 287 288 287 287 284 287 288 283 280 279 285
307 306 310 315 316 317 312 307 304 303 302 302 302 300 300 298 298 297 297 298 298 298 297 296 296 291 290 289 289 289 287 284 282 284 285 286 285 286 286 282 282 284 284
308 309 306 312 315 316 313 306 304 302 302 302 300 298 298 298 298 297 297 297 296 296 295 294 293 292 290 288 288 289 285 282 282 282 280 281 285 286 287 287 285 285 286
308 308 306 306 314 315 313 308 303 303 301 299 297 296 297 297 297 297 296 296 295 293 291 290 289 289 288 288 288 288 287 286 283 282 280 281 286 287 287 286 286 286 284
304 306 306 306 313 313 313 307 299 299 297 295 295 295 296 297 297 295 294 293 293 291 289 288 288 287 286 286 288 288 287 286 282 281 283 285 286 286 282 286 286 284 285
299 301 299 297 297 303 304 298 297 296 295 294 294 294 294 294 294 293 293 292 290 289 288 287 287 286 286 285 284 283 281 285 282 280 280 279 281 283 284 284 285 285 285
298 299 297 294 293 294 294 295 295 296 294 293 292 292 291 291 291 291 291 290 290 291 289 288 287 286 285 285 284 283 281 278 281 278 276 274 276 277 282 283 284 281 283
296 296 294 293 293 293 293 294 295 294 293 291 291 291 291 290 289 289 286 287 288 288 289 288 288 285 286 286 286 285 285 284 284 277 273 270 271 273 279 281 282 283 283
Wind_Speed
10 10 13 13 22 22 22 21 20 19 15 11 10 8 9 6 5 6 8 7 6 6 7 5 5 6 5 6 5 3 4 5 3 3 4 4 3 5 5 4 4 6 6
8 9 8 9 21 24 22 22 20 21 16 13 11 6 4 4 6 5 6 6 7 7 7 7 6 6 6 6 6 5 2 1 3 2 2 4 5 4 3 3 4 5 4
10 9 8 10 19 22 21 20 21 22 18 15 10 8 5 4 4 7 5 5 7 6 7 8 7 6 6 5 5 5 5 2 3 5 4 2 3 4 3 5 4 6 4
10 10 11 9 17 22 23 24 22 22 18 19 16 19 12 11 7 7 5 6 8 7 8 7 7 7 5 6 5 4 4 4 2 2 3 2 3 1 4 4 5 5 6
13 11 11 12 13 19 22 22 23 22 19 19 18 14 14 8 6 7 11 8 6 8 8 8 8 7 5 6 7 5 5 3 3 2 0 1 1 1 2 4 4 4 4
16 17 18 10 15 17 21 21 21 21 21 19 20 20 18 12 11 11 10 9 7 6 7 8 7 7 6 7 5 5 6 4 3 1 1 1 1 3 1 2 3 4 5
18 17 14 10 14 17 16 18 22 20 21 19 18 19 18 17 17 14 11 12 9 5 7 7 7 5 7 7 6 5 4 3 2 2 1 1 0 1 1 1 4 4 3
15 16 13 11 17 20 19 20 22 21 20 17 16 15 18 11 11 13 11 9 9 8 8 9 8 8 8 7 6 4 3 4 3 3 2 0 2 1 0 2 2 8 5
13 16 11 10 15 20 22 21 21 19 20 18 16 15 16 16 14 13 12 9 8 9 10 10 9 8 8 7 7 4 3 3 3 3 2 1 1 2 3 3 2 2 7
16 12 9 10 14 19 19 17 19 22 20 19 17 15 15 16 15 15 14 12 11 11 11 11 10 9 8 7 6 4 4 5 2 2 2 2 3 4 4 3 4 4 5
13 9 9 8 14 15 16 15 16 19 16 15 15 15 15 17 16 15 13 15 14 14 13 12 10 10 8 7 6 5 5 6 4 3 5 5 5 4 5 5 5 5 5
21 14 8 11 15 15 15 15 14 16 15 15 14 15 13 16 15 14 16 15 14 13 13 11 10 9 9 7 7 6 5 6 5 5 7 7 6 6 5 4 5 4 5
8 8 11 13 14 13 14 13 12 12 12 13 13 13 15 14 15 17 17 16 16 12 12 12 10 9 9 9 7 7 7 6 5 6 6 6 6 5 3 4 4 3 6
7 4 9 12 12 13 14 13 12 13 13 13 14 14 15 14 15 13 16 14 13 14 11 10 9 12 8 8 9 8 7 5 5 6 6 6 4 3 5 4 4 7 9
9 6 7 12 15 14 14 13 12 13 14 14 14 14 14 15 15 14 15 13 12 11 12 11 10 8 10 7 9 8 6 5 6 6 5 4 3 6 3 2 6 5 5
10 9 9 13 18 19 17 17 16 16 16 16 15 14 15 15 15 13 15 15 13 13 12 11 11 10 7 12 12 8 5 5 5 4 1 0 2 2 5 7 9 6 5
10 9 10 12 15 18 19 20 18 16 16 16 16 16 16 17 15 14 13 12 12 12 12 10 11 10 10 13 12 9 4 4 3 3 1 1 3 4 4 6 11 7 11
11 10 10 13 15 17 17 17 18 19 18 17 18 17 17 17 16 16 13 10 9 11 11 10 11 11 8 12 12 9 5 3 6 5 3 3 3 4 5 4 5 5 8
18 13 12 13 17 19 19 20 19 18 18 18 19 19 19 19 18 16 14 10 10 9 8 10 12 11 9 12 11 7 5 5 5 5 4 3 3 6 9 5 5 6 7
17 10 9 11 15 19 22 22 21 21 22 21 18 17 18 19 18 17 14 11 10 9 8 9 9 13 9 10 10 7 4 5 3 2 2 4 5 9 11 5 4 6 8
23 19 10 15 17 20 22 23 22 23 19 17 18 17 17 19 17 16 12 11 11 10 9 8 8 9 9 8 11 9 4 4 2 1 1 1 8 10 11 11 4 5 9
11 9 8 9 15 22 23 21 21 17 19 20 20 18 18 15 14 17 11 11 10 10 8 9 6 6 7 10 10 10 6 6 3 2 2 1 7 10 12 8 7 10 6
3 2 6 8 17 22 24 22 18 23 23 22 20 18 19 17 16 15 13 10 9 8 7 7 7 6 5 4 12 10 8 6 3 2 0 4 5 8 6 9 10 6 4
9 6 15 14 13 8 9 17 23 25 25 23 21 18 18 17 14 9 9 9 8 7 7 7 6 5 4 5 4 4 3 5 4 1 3 3 4 4 3 4 6 5 4
8 6 12 16 17 16 14 11 16 23 23 21 18 17 14 16 14 10 9 8 6 10 10 7 7 8 6 6 7 6 3 3 2 1 2 2 2 2 2 2 4 4 3
6 8 11 15 13 19 18 12 13 17 20 19 15 13 12 11 11 10 7 13 10 11 10 9 8 2 8 12 10 9 7 5 3 2 1 1 0 0 1 1 4 4 6
Wind_Direction
221 213 216 205 166 171 168 170 163 169 164 178 177 183 196 168 149 142 146 146 152 154 144 149 117 127 116 119 108 102 74 37 7 43 339 327 80 54 20 357 12 9 356
227 228 202 201 164 171 174 168 169 167 173 177 177 163 158 153 146 137 137 147 150 148 160 141 132 143 113 98 90 85 86 55 30 121 67 353 333 341 29 342 9 356 355
227 231 224 193 161 170 173 172 173 173 173 174 159 127 122 129 138 159 141 175 153 147 129 135 129 120 118 127 126 112 104 103 358 52 134 29 279 332 338 337 1 352 353
209 213 217 206 168 174 174 173 173 174 174 171 167 162 171 176 177 163 144 154 145 140 131 128 122 125 123 114 120 118 117 116 84 13 54 115 169 234 329 336 332 333 338
223 224 213 198 187 170 174 177 175 172 170 173 168 161 168 174 151 153 153 147 142 141 137 131 123 126 120 117 125 122 108 105 126 134 15 349 339 149 201 285 313 316 309
234 229 231 187 187 172 174 173 172 173 173 173 168 170 166 159 159 161 159 158 147 144 139 133 125 127 118 120 120 113 103 118 117 104 91 124 135 299 309 288 285 254 294
229 228 218 184 179 171 165 171 172 171 175 175 171 166 159 163 167 167 164 158 156 152 156 135 136 130 129 125 118 113 122 128 122 130 154 93 327 226 266 294 295 299 293
230 217 209 188 177 176 167 163 173 170 168 168 177 166 157 156 166 168 165 166 162 154 150 138 129 127 122 116 118 114 119 106 116 99 90 144 295 9 271 270 321 317 299
234 215 203 190 174 178 175 168 164 168 170 170 169 172 174 154 166 163 165 161 150 153 144 137 130 132 124 126 127 124 123 104 97 100 56 99 345 5 347 323 315 282 316
228 211 196 173 181 172 174 164 166 167 166 175 168 176 168 154 163 160 162 162 155 148 144 137 134 129 128 126 123 119 117 114 115 113 64 33 17 6 360 332 327 331 322
278 221 194 171 165 163 157 158 156 154 153 158 162 156 161 150 164 163 156 156 147 149 142 138 138 133 129 129 121 132 103 105 90 57 65 36 25 14 16 21 17 3 352
281 214 152 129 146 149 150 152 153 154 156 153 151 153 152 152 150 154 146 150 146 146 140 135 133 134 132 131 130 121 118 96 84 56 54 43 32 51 32 23 1 348 333
225 134 130 142 147 149 149 150 150 146 144 146 147 152 154 161 155 155 143 146 139 142 139 132 145 135 138 129 131 118 107 99 86 75 67 53 62 37 6 359 351 332 339
313 132 134 146 150 154 153 148 145 146 147 147 161 159 162 164 150 157 140 139 144 135 134 139 139 131 141 125 111 108 92 85 74 78 74 72 60 17 11 0 335 337 329
258 184 167 159 160 158 158 154 154 153 156 159 161 161 159 152 147 149 134 136 132 134 138 143 133 127 119 121 114 100 103 101 88 77 70 69 349 357 77 3 332 332 322
263 248 189 175 168 170 166 163 164 165 164 165 159 150 148 147 145 144 141 140 144 138 147 136 127 123 113 107 107 118 126 104 110 110 109 264 311 6 351 336 326 311 309
240 222 188 183 178 173 171 168 163 159 163 158 155 154 153 146 142 139 133 144 139 139 133 135 134 118 118 128 123 127 118 113 153 145 114 19 46 18 338 301 328 311 297
253 233 210 190 184 175 169 158 158 161 162 160 157 157 153 146 142 138 137 131 133 140 138 146 135 123 145 139 134 125 119 121 102 94 72 49 6 325 330 342 333 301 274
259 252 228 200 178 172 163 159 161 161 162 166 164 161 154 147 140 138 136 141 139 136 145 142 130 144 136 148 136 123 120 102 87 65 32 36 1 339 357 325 282 278 284
264 263 228 206 177 170 160 162 167 166 171 171 160 156 153 145 144 138 138 142 146 143 141 139 142 131 140 144 136 132 114 109 93 46 4 10 20 351 328 309 292 316 315
268 250 203 196 187 173 163 168 170 173 163 147 143 150 149 140 136 129 131 130 135 137 143 136 121 136 150 148 134 126 120 130 129 169 261 308 357 328 321 330 318 304 310
225 220 219 213 180 173 167 166 171 152 142 140 142 142 137 133 132 128 126 136 136 139 144 136 120 148 156 147 153 147 131 143 144 165 169 278 355 336 330 335 320 330 317
313 11 243 213 172 172 169 162 145 137 136 136 139 136 134 135 134 128 134 134 142 153 142 136 153 162 151 150 151 152 153 130 126 140 42 317 324 11 345 335 339 332 330
339 63 75 54 44 63 107 132 138 135 136 137 135 134 131 126 116 124 134 153 154 138 142 156 162 148 139 141 129 127 114 97 91 62 295 282 272 42 359 343 324 327 322
339 350 94 100 91 77 84 109 127 133 132 128 129 127 125 125 127 134 154 163 138 162 169 172 160 159 162 171 153 144 146 158 183 247 15 3 2 10 350 331 330 317 313
354 61 70 95 98 107 111 105 116 125 123 121 123 124 126 127 136 138 110 69 123 133 130 136 145 99 130 146 148 158 161 172 171 88 151 307 1 319 291 309 322 320 323